CZ-6A DEB

Satellite information

Favourite Embed

Satellite Type and Status

DEBRISIN ORBIT

Key statistics

Satellite CZ-6A DEB at a glance.

Uptime

907

Days in orbit

Revolutions

≈ 14.8

Per day

Orbit

SSO

Sun Synchronous Orbit

Inclination

98.7

Latest

Satellite identification and parameters

Extended collection of information and parameters for CZ-6A DEB.

Object identification

Identified? True

Debris? True

Object name: CZ-6A DEB

International designator: 2022-151HS

Object number (NORAD): 54490

Object ID (CCSDS): 54490

Country: PEOPLES REPUBLIC OF CHINA (PRC)

Current information (Y/N): Y

RCS size: SMALL

Orbital parameters

Period: 97.231 minutes

Inclination: 98.6566 deg

SMA: 7004.266 km

Apoapsis: 670.299 km

Periapsis: 581.964 km

RAAN: 175.3025 deg

Eccentricy: 0.0063058

Argument of periapsis: 85.9384 deg

Mean anomaly: 274.9031 deg

Mean motion: 14.81012731 rev/day

Mean motion (dot): 0.00043162 rev/day2

B* drag term: 0.0053598 1/REarth

Two-line elements (TLE)

Creation date: May 6, 2025, 3:54 a.m.

Reference frame: TEME

Reference center: EARTH

Epoch: May 5, 2025, 2:11 a.m. UTC

TLE line 0: 0 CZ-6A DEB

TLE line 1: 1 54490U 22151HS 25125.09134592 .00043162 00000-0 53598-2 0 9999

TLE line 2: 2 54490 98.6566 175.3025 0063058 85.9384 274.9031 14.81012731130699

Live tracking on map

Real-time ground track for satellite CZ-6A DEB.

In-orbit conjunctions

A list of the most updated potential collisions computed for object CZ-6A DEB.

Target Orbit TCA Probability of collision Miss distance Type
IRIDIUM 73 LEO 2024-11-01 00:36:30 0.0001373345 384.0 (m) PAYLOAD
SL-8 R/B LEO 2024-08-06 05:56:11 0.0001169232 270.0 (m) ROCKET BODY

Associated space launch

Chinese satellite reported for atmospheric/ocean/environmental/spatial parameter research purposes, details TBD.

CZ-6A DEB was lifted into orbit during the mission ‘Long March 6A | Yunhai 3’, on board a Long March 6A space rocket.

The launch took place on Nov. 11, 2022, 10:52 p.m. from Launch Complex 9A.

For more information about the launch, click the button.

Launch to space Long March 6A | Yunhai 3
Long March 6A | Yunhai 3

Agency: N/A

Status: Launch Successful

Launch date: Nov. 11, 2022, 10:52 p.m. UTC

Rocket: Long March 6A

Launch pad: Launch Complex 9A

Location: Taiyuan Satellite Launch Center, People's Republic of China

...

Latest news about this satellite

There are no fresh news available about this satellite. Check back as we update our databases every day.


Newsletter sign-up

Weekly statistics, charts and insights to help you stay on top of the space industry.